South Pass, WY

2:34 PM MDT on March 29, 2017 (GMT -0600)
South Pass

Weather History for KFWZ - November, 2012

Change the Weather History Date:

Friday, November 16, 2012

  Actual Average (KLND) Record (KLND)
Temperature  
Mean Temperature 32 °F -  
Max Temperature 37 °F 41 °F 66 °F (1896)
Min Temperature 28 °F 18 °F -17 °F (1978)
Degree Days  
Heating Degree Days 32    
Moisture  
Dew Point 21 °F    
Average Humidity 64    
Maximum Humidity 80    
Minimum Humidity 45    
Precipitation  
Precipitation 0.00 in - - ()
Sea Level Pressure  
Sea Level Pressure 30.04 in    
Wind  
Wind Speed 9 mph ()    
Max Wind Speed 22 mph    
Max Gust Speed 31 mph    
Visibility 10.0 miles    
Events      
Averages and records for this station are not official NWS values.
T = Trace of Precipitation, MM = Missing Value Source: Averaged Metar Reports

Daily Weather History Graph

Daily Weather History Graph

Search for Another Location

Airport or City:

Trip Planner

Search our weather history database for the weather conditions in past years. The results will help you decide how hot, cold, wet, or windy it might be!

Date:

Astronomy

Nov. 16, 2012 Rise Set
Actual Time 7:08 AM MST 4:51 PM MST
Civil Twilight 6:37 AM MST 5:21 PM MST
Nautical Twilight 6:03 AM MST 5:55 PM MST
Astronomical Twilight 5:30 AM MST 6:29 PM MST
Moon 10:06 AM MST (11/16) 7:53 PM MST (11/16)
Length of Visible Light 10h 44m
Length of Day
9h 43m
Waxing Crescent, 12% of the Moon is Illuminated
Nov 16
Waxing Crescent
Nov 20
First Quarter
Nov 28
Full
Dec 6
Last Quarter
Dec 13
New

Hourly Weather History & Observations

Time (MST) Temp. Windchill Dew Point Humidity Pressure Visibility Wind Dir Wind Speed Gust Speed Precip Events Conditions
12:15 AM 32.0 °F 25.6 °F 17.6 °F 55% - 10.0 mi WSW 6.9 mph - N/A   Clear
12:35 AM 28.4 °F 21.2 °F 17.6 °F 64% - 10.0 mi West 6.9 mph - N/A   Clear
12:55 AM 28.4 °F 21.2 °F 17.6 °F 64% - 10.0 mi WSW 6.9 mph - N/A   Clear
1:15 AM 30.2 °F 21.3 °F 15.8 °F 55% - 10.0 mi WSW 10.4 mph 16.1 mph N/A   Clear
1:35 AM 30.2 °F 21.9 °F 17.6 °F 60% - 10.0 mi WSW 9.2 mph - N/A   Clear
1:55 AM 30.2 °F 22.6 °F 17.6 °F 60% - 10.0 mi WSW 8.1 mph - N/A   Clear
2:15 AM 30.2 °F 23.4 °F 17.6 °F 60% - 10.0 mi WSW 6.9 mph - N/A   Clear
2:35 AM 28.4 °F 20.4 °F 17.6 °F 64% - 10.0 mi WSW 8.1 mph - N/A   Clear
2:55 AM 28.4 °F 19.7 °F 17.6 °F 64% - 10.0 mi WSW 9.2 mph - N/A   Clear
3:15 AM 30.2 °F 21.3 °F 19.4 °F 64% - 10.0 mi WSW 10.4 mph - N/A   Clear
3:35 AM 30.2 °F 22.6 °F 19.4 °F 64% - 10.0 mi WSW 8.1 mph - N/A   Clear
3:55 AM 30.2 °F 21.9 °F 19.4 °F 64% - 10.0 mi WSW 9.2 mph - N/A   Clear
4:15 AM 30.2 °F 23.4 °F 19.4 °F 64% - 10.0 mi West 6.9 mph - N/A   Clear
4:35 AM 30.2 °F 24.3 °F 17.6 °F 60% - 10.0 mi WSW 5.8 mph - N/A   Clear
5:35 AM 30.2 °F 21.9 °F 17.6 °F 60% - 10.0 mi WSW 9.2 mph - N/A   Clear
6:15 AM 32.0 °F 26.4 °F 19.4 °F 60% - 10.0 mi SW 5.8 mph - N/A   Clear
6:35 AM 32.0 °F 24.8 °F 19.4 °F 60% - 10.0 mi WSW 8.1 mph - N/A   Clear
7:15 AM 32.0 °F 24.2 °F 17.6 °F 55% - 10.0 mi WSW 9.2 mph - N/A   Clear
7:35 AM 32.0 °F 25.6 °F 17.6 °F 55% - 10.0 mi WSW 6.9 mph - N/A   Scattered Clouds
7:55 AM 32.0 °F 27.5 °F 17.6 °F 55% 30.10 in 10.0 mi SSW 4.6 mph - N/A   Scattered Clouds
8:15 AM 32.0 °F 25.6 °F 17.6 °F 55% 30.10 in 10.0 mi SSW 6.9 mph - N/A   Clear
8:35 AM 32.0 °F 26.4 °F 17.6 °F 55% 30.10 in 10.0 mi SW 5.8 mph - N/A   Clear
8:55 AM 33.8 °F 29.6 °F 17.6 °F 52% 30.10 in 10.0 mi SSW 4.6 mph - N/A   Clear
9:15 AM 32.0 °F 27.5 °F 19.4 °F 60% 30.10 in 10.0 mi SSE 4.6 mph - N/A   Clear
9:35 AM 32.0 °F 25.6 °F 21.2 °F 64% 30.10 in 10.0 mi SSE 6.9 mph - N/A   Clear
10:15 AM 33.8 °F 27.7 °F 21.2 °F 60% 30.09 in 10.0 mi SW 6.9 mph - N/A   Scattered Clouds
10:35 AM 33.8 °F 26.4 °F 21.2 °F 60% 30.09 in 10.0 mi SSW 9.2 mph - N/A   Scattered Clouds
10:55 AM 35.6 °F 29.2 °F 21.2 °F 56% 30.09 in 10.0 mi SSW 8.1 mph - N/A   Clear
11:15 AM 35.6 °F 28.6 °F 23.0 °F 60% 30.09 in 10.0 mi SW 9.2 mph - N/A   Clear
11:35 AM 37.4 °F 29.8 °F 19.4 °F 48% 30.07 in 10.0 mi SW 11.5 mph 17.3 mph N/A   Scattered Clouds
12:15 PM 37.4 °F 28.5 °F 17.6 °F 45% 30.06 in 10.0 mi SW 15.0 mph - N/A   Scattered Clouds
12:35 PM 37.4 °F 29.3 °F 19.4 °F 48% 30.05 in 10.0 mi SW 12.7 mph - N/A   Clear
12:55 PM 35.6 °F 26.2 °F 19.4 °F 52% 30.04 in 10.0 mi WSW 15.0 mph 18.4 mph N/A   Clear
1:15 PM 35.6 °F 27.5 °F 21.2 °F 56% 30.03 in 10.0 mi SW 11.5 mph 17.3 mph N/A   Scattered Clouds
1:35 PM 35.6 °F 28.0 °F 24.8 °F 65% 30.02 in 10.0 mi SSW 10.4 mph - N/A   Scattered Clouds
2:15 PM 33.8 °F 24.8 °F 26.6 °F 75% 30.01 in 10.0 mi SW 12.7 mph 19.6 mph N/A   Scattered Clouds
2:35 PM 33.8 °F 24.8 °F 26.6 °F 75% 30.00 in 10.0 mi SW 12.7 mph 17.3 mph N/A   Mostly Cloudy
2:55 PM 33.8 °F 24.8 °F 24.8 °F 70% 30.00 in 10.0 mi WSW 12.7 mph 18.4 mph N/A   Scattered Clouds
3:35 PM 35.6 °F 26.6 °F 21.2 °F 56% 29.99 in 10.0 mi WSW 13.8 mph 26.5 mph N/A   Scattered Clouds
3:55 PM 35.6 °F 25.5 °F 21.2 °F 56% 30.00 in 10.0 mi WSW 17.3 mph 23.0 mph N/A   Scattered Clouds
4:35 PM 33.8 °F 23.9 °F 21.2 °F 60% 30.00 in 10.0 mi WSW 15.0 mph - N/A   Mostly Cloudy
4:55 PM 35.6 °F 24.8 °F 19.4 °F 52% 30.00 in 10.0 mi West 19.6 mph 27.6 mph N/A   Overcast
5:15 PM 35.6 °F 24.8 °F 19.4 °F 52% 30.00 in 10.0 mi WSW 19.6 mph 27.6 mph N/A   Mostly Cloudy
5:35 PM 33.8 °F 22.5 °F 23.0 °F 65% 30.02 in 10.0 mi WSW 19.6 mph 31.1 mph N/A   Mostly Cloudy
5:55 PM 32.0 °F 20.5 °F 24.8 °F 75% 30.02 in 10.0 mi WSW 18.4 mph 24.2 mph N/A   Overcast
6:15 PM 32.0 °F 21.2 °F 23.0 °F 69% 30.01 in 10.0 mi SW 16.1 mph 25.3 mph N/A   Overcast
6:35 PM 32.0 °F 20.8 °F 24.8 °F 75% 30.00 in 10.0 mi SW 17.3 mph 23.0 mph N/A   Scattered Clouds
6:55 PM 32.0 °F 19.5 °F 24.8 °F 75% 30.00 in 10.0 mi WSW 21.9 mph 26.5 mph N/A   Scattered Clouds
7:15 PM 32.0 °F 19.8 °F 24.8 °F 75% 29.99 in 10.0 mi WSW 20.7 mph 27.6 mph N/A   Mostly Cloudy
7:35 PM 32.0 °F 20.5 °F 23.0 °F 69% 30.00 in 10.0 mi WSW 18.4 mph 25.3 mph N/A   Mostly Cloudy
8:15 PM 32.0 °F 22.1 °F 24.8 °F 75% 30.01 in 10.0 mi West 13.8 mph 21.9 mph N/A   Scattered Clouds
8:35 PM 32.0 °F 23.0 °F 26.6 °F 80% 30.00 in 10.0 mi West 11.5 mph 20.7 mph N/A   Clear
8:55 PM 32.0 °F 24.8 °F 24.8 °F 75% 30.02 in 10.0 mi NW 8.1 mph - N/A   Clear
9:15 PM 32.0 °F 25.6 °F 24.8 °F 75% 30.03 in 10.0 mi NW 6.9 mph - N/A   Clear
9:35 PM 32.0 °F 27.5 °F 24.8 °F 75% 30.04 in 10.0 mi West 4.6 mph - N/A   Clear
9:55 PM 32.0 °F 27.5 °F 23.0 °F 69% 30.05 in 10.0 mi WSW 4.6 mph - N/A   Clear
10:15 PM 32.0 °F 26.4 °F 24.8 °F 75% 30.05 in 10.0 mi West 5.8 mph - N/A   Clear
10:35 PM 32.0 °F 27.5 °F 23.0 °F 69% 30.06 in 10.0 mi West 4.6 mph - N/A   Clear
10:55 PM 32.0 °F 25.6 °F 24.8 °F 75% 30.05 in 10.0 mi West 6.9 mph - N/A   Clear
11:15 PM 32.0 °F 26.4 °F 24.8 °F 75% 30.05 in 10.0 mi West 5.8 mph - N/A   Clear
11:35 PM 30.2 °F 25.4 °F 24.8 °F 80% 30.06 in 10.0 mi SW 4.6 mph - N/A   Scattered Clouds
11:55 PM 30.2 °F 26.7 °F 24.8 °F 80% 30.06 in 10.0 mi West 3.5 mph - N/A   Scattered Clouds